| time (UTC) | temp F | wind direction | speed MPH | gust MPH | rain 1hr in | rain 24hr in | rain mn in | humidity % | barometer mb |
| 20260509173000 | 87 | 186 | 0.0 | 0.0 | 0.00 | 0.00 | 0.00 | 68 | 1016.9 |
| 20260509172457 | 86 | 170 | 0.0 | 0.0 | 0.00 | 0.00 | 0.00 | 68 | 1017.2 |
| 20260509171952 | 86 | 165 | 1.0 | 2.0 | 0.00 | 0.00 | 0.00 | 70 | 1016.9 |
| 20260509171449 | 86 | 164 | 0.0 | 0.0 | 0.00 | 0.00 | 0.00 | 69 | 1017.0 |
| 20260509170945 | 86 | 203 | 2.0 | 2.0 | 0.00 | 0.00 | 0.00 | 69 | 1017.0 |
| 20260509170441 | 85 | 158 | 1.0 | 1.0 | 0.00 | 0.00 | 0.00 | 70 | 1016.9 |
| 20260509165936 | 85 | 156 | 0.0 | 0.0 | 0.00 | 0.00 | 0.00 | 71 | 1017.1 |
| 20260509165431 | 85 | 164 | 1.0 | 1.0 | 0.00 | 0.00 | 0.00 | 71 | 1017.0 |
| 20260509164926 | 85 | 198 | 1.0 | 2.0 | 0.00 | 0.00 | 0.00 | 69 | 1016.9 |
| 20260509164423 | 85 | 225 | 1.0 | 2.0 | 0.00 | 0.00 | 0.00 | 71 | 1017.0 |
| 20260509163919 | 86 | 167 | 1.0 | 1.0 | 0.00 | 0.00 | 0.00 | 70 | 1016.8 |
| 20260509163416 | 85 | 269 | 1.0 | 1.0 | 0.00 | 0.00 | 0.00 | 71 | 1017.0 |
| 20260509162915 | 84 | 187 | 0.0 | 1.0 | 0.00 | 0.00 | 0.00 | 71 | 1016.9 |
| 20260509162414 | 84 | 169 | 0.0 | 1.0 | 0.00 | 0.00 | 0.00 | 72 | 1017.0 |
| 20260509161909 | 84 | 214 | 3.0 | 3.0 | 0.00 | 0.00 | 0.00 | 71 | 1017.0 |
| 20260509161406 | 83 | 177 | 1.0 | 1.0 | 0.00 | 0.00 | 0.00 | 73 | 1017.0 |
| 20260509160902 | 83 | 183 | 2.0 | 2.0 | 0.00 | 0.00 | 0.00 | 73 | 1017.1 |
| 20260509160357 | 83 | 161 | 0.0 | 0.0 | 0.00 | 0.00 | 0.00 | 73 | 1017.1 |
| 20260509155853 | 83 | 217 | 3.0 | 3.0 | 0.00 | 0.00 | 0.00 | 75 | 1017.1 |
| 20260509155350 | 82 | 201 | 1.0 | 1.0 | 0.00 | 0.00 | 0.00 | 76 | 1017.2 |
| 20260509154846 | 82 | 165 | 1.0 | 1.0 | 0.00 | 0.00 | 0.00 | 75 | 1017.2 |
| 20260509154343 | 82 | 190 | 2.0 | 2.0 | 0.00 | 0.00 | 0.00 | 76 | 1017.2 |
| 20260509153839 | 82 | 166 | 1.0 | 1.0 | 0.00 | 0.00 | 0.00 | 76 | 1017.1 |
| 20260509153337 | 82 | 212 | 0.0 | 1.0 | 0.00 | 0.00 | 0.00 | 78 | 1016.9 |
| 20260509152833 | 82 | 175 | 1.0 | 2.0 | 0.00 | 0.00 | 0.00 | 78 | 1017.3 |
| 20260509152329 | 82 | 173 | 1.0 | 2.0 | 0.00 | 0.00 | 0.00 | 79 | 1017.1 |
| 20260509151827 | 81 | 185 | 1.0 | 2.0 | 0.00 | 0.00 | 0.00 | 78 | 1017.1 |
| 20260509151323 | 81 | 177 | 2.0 | 3.0 | 0.00 | 0.00 | 0.00 | 79 | 1017.5 |
| 20260509150822 | 81 | 201 | 2.0 | 2.0 | 0.00 | 0.00 | 0.00 | 78 | 1017.3 |
| 20260509150318 | 81 | 171 | 1.0 | 2.0 | 0.00 | 0.00 | 0.00 | 78 | 1017.3 |
| 20260509145816 | 81 | 160 | 1.0 | 1.0 | 0.00 | 0.00 | 0.00 | 79 | 1017.4 |
| 20260509145316 | 81 | 178 | 1.0 | 2.0 | 0.00 | 0.00 | 0.00 | 79 | 1017.3 |
| 20260509144812 | 80 | 172 | 0.0 | 0.0 | 0.00 | 0.00 | 0.00 | 80 | 1017.7 |
| 20260509144309 | 81 | 194 | 1.0 | 2.0 | 0.00 | 0.00 | 0.00 | 80 | 1017.6 |
| 20260509143806 | 81 | 212 | 1.0 | 3.0 | 0.00 | 0.00 | 0.00 | 80 | 1017.5 |
| 20260509143304 | 81 | 159 | 1.0 | 1.0 | 0.00 | 0.00 | 0.00 | 81 | 1017.6 |
| 20260509142800 | 81 | 242 | 3.0 | 3.0 | 0.00 | 0.00 | 0.00 | 80 | 1017.7 |
| 20260509142256 | 81 | 179 | 0.0 | 0.0 | 0.00 | 0.00 | 0.00 | 80 | 1017.5 |
| 20260509141751 | 80 | 169 | 0.0 | 0.0 | 0.00 | 0.00 | 0.00 | 82 | 1017.4 |
| 20260509141249 | 81 | 153 | 0.0 | 0.0 | 0.00 | 0.00 | 0.00 | 82 | 1017.4 |
| 20260509140745 | 81 | 157 | 0.0 | 0.0 | 0.00 | 0.00 | 0.00 | 81 | 1017.2 |
| 20260509140243 | 81 | 160 | 0.0 | 0.0 | 0.00 | 0.00 | 0.00 | 83 | 1017.1 |
| 20260509135740 | 81 | 168 | 0.0 | 0.0 | 0.00 | 0.00 | 0.00 | 82 | 1017.2 |
| 20260509135238 | 80 | 130 | 1.0 | 1.0 | 0.00 | 0.00 | 0.00 | 83 | 1017.2 |
| 20260509134734 | 80 | 172 | 0.0 | 0.0 | 0.00 | 0.00 | 0.00 | 83 | 1016.6 |
| 20260509134232 | 80 | 167 | 0.0 | 0.0 | 0.00 | 0.00 | 0.00 | 84 | 1017.3 |
| 20260509133729 | 80 | 171 | 0.0 | 0.0 | 0.00 | 0.00 | 0.00 | 85 | 1016.6 |
| 20260509133226 | 78 | 157 | 0.0 | 0.0 | 0.00 | 0.00 | 0.00 | 86 | 1016.9 |
| 20260509132725 | 78 | 164 | 0.0 | 1.0 | 0.00 | 0.00 | 0.00 | 87 | 1016.9 |
| 20260509132223 | 77 | 154 | 0.0 | 0.0 | 0.00 | 0.00 | 0.00 | 90 | 1016.8 |
| 20260509131719 | 77 | 145 | 0.0 | 0.0 | 0.00 | 0.00 | 0.00 | 94 | 1017.0 |
| 20260509131215 | 76 | 153 | 0.0 | 0.0 | 0.00 | 0.00 | 0.00 | 95 | 1017.0 |
| 20260509130711 | 76 | 162 | 0.0 | 0.0 | 0.00 | 0.00 | 0.00 | 96 | 1016.9 |
| 20260509130207 | 75 | 164 | 0.0 | 0.0 | 0.00 | 0.00 | 0.00 | 97 | 1016.7 |
| 20260509125704 | 75 | 155 | 0.0 | 0.0 | 0.00 | 0.00 | 0.00 | 97 | 1016.6 |
| 20260509125201 | 75 | 151 | 0.0 | 0.0 | 0.00 | 0.00 | 0.00 | 97 | 1016.9 |
| 20260509124657 | 74 | 160 | 0.0 | 0.0 | 0.00 | 0.00 | 0.00 | 97 | 1016.9 |
| 20260509124154 | 74 | 152 | 0.0 | 0.0 | 0.00 | 0.00 | 0.00 | 97 | 1016.8 |
| 20260509123653 | 74 | 156 | 0.0 | 0.0 | 0.00 | 0.00 | 0.00 | 97 | 1016.7 |
| 20260509123149 | 73 | 160 | 0.0 | 0.0 | 0.00 | 0.00 | 0.00 | 97 | 1016.7 |
| 20260509122645 | 73 | 153 | 0.0 | 0.0 | 0.00 | 0.00 | 0.00 | 97 | 1016.7 |
| 20260509122142 | 73 | 155 | 0.0 | 0.0 | 0.00 | 0.00 | 0.00 | 97 | 1016.8 |
| 20260509121638 | 73 | 158 | 0.0 | 0.0 | 0.00 | 0.00 | 0.00 | 97 | 1016.8 |
| 20260509121137 | 73 | 156 | 0.0 | 0.0 | 0.00 | 0.00 | 0.00 | 97 | 1016.6 |
| 20260509120634 | 72 | 157 | 0.0 | 0.0 | 0.00 | 0.00 | 0.00 | 97 | 1016.5 |
| 20260509120132 | 72 | 163 | 0.0 | 0.0 | 0.00 | 0.00 | 0.00 | 97 | 1016.4 |
| 20260509115629 | 72 | 155 | 0.0 | 0.0 | 0.00 | 0.00 | 0.00 | 97 | 1016.4 |
| 20260509115127 | 72 | 164 | 0.0 | 0.0 | 0.00 | 0.00 | 0.00 | 97 | 1016.7 |
| 20260509114625 | 71 | 169 | 0.0 | 0.0 | 0.00 | 0.00 | 0.00 | 97 | 1016.5 |
| 20260509114124 | 71 | 169 | 0.0 | 0.0 | 0.00 | 0.00 | 0.00 | 97 | 1016.6 |
| 20260509113621 | 71 | 169 | 0.0 | 0.0 | 0.00 | 0.00 | 0.00 | 97 | 1016.4 |
| 20260509113119 | 70 | 169 | 0.0 | 0.0 | 0.00 | 0.00 | 0.00 | 97 | 1016.4 |
| 20260509112615 | 70 | 169 | 0.0 | 0.0 | 0.00 | 0.00 | 0.00 | 97 | 1016.3 |
| 20260509112112 | 70 | 169 | 0.0 | 0.0 | 0.00 | 0.00 | 0.00 | 97 | 1016.6 |
| 20260509111609 | 70 | 169 | 0.0 | 0.0 | 0.00 | 0.00 | 0.00 | 97 | 1016.8 |
| 20260509111106 | 69 | 169 | 0.0 | 0.0 | 0.00 | 0.00 | 0.00 | 97 | 1017.0 |
| 20260509110603 | 69 | 171 | 0.0 | 0.0 | 0.00 | 0.00 | 0.00 | 97 | 1017.1 |
| 20260509110100 | 69 | 171 | 0.0 | 0.0 | 0.00 | 0.00 | 0.00 | 97 | 1016.9 |
| 20260509105558 | 69 | 171 | 0.0 | 0.0 | 0.00 | 0.00 | 0.00 | 97 | 1016.9 |
| 20260509105055 | 69 | 171 | 0.0 | 0.0 | 0.00 | 0.00 | 0.00 | 97 | 1017.0 |
| 20260509104552 | 69 | 171 | 0.0 | 0.0 | 0.00 | 0.00 | 0.00 | 97 | 1017.0 |
| 20260509104049 | 69 | 171 | 0.0 | 0.0 | 0.00 | 0.00 | 0.00 | 97 | 1016.8 |
| 20260509103547 | 69 | 171 | 0.0 | 0.0 | 0.00 | 0.00 | 0.00 | 97 | 1016.8 |
| 20260509103045 | 69 | 171 | 0.0 | 0.0 | 0.00 | 0.00 | 0.00 | 97 | 1016.9 |
| 20260509102542 | 69 | 170 | 0.0 | 0.0 | 0.00 | 0.00 | 0.00 | 97 | 1016.7 |
| 20260509102039 | 69 | 172 | 0.0 | 0.0 | 0.00 | 0.00 | 0.00 | 97 | 1016.8 |
| 20260509101535 | 69 | 168 | 0.0 | 0.0 | 0.00 | 0.00 | 0.00 | 97 | 1016.7 |
| 20260509101032 | 69 | 168 | 0.0 | 0.0 | 0.00 | 0.00 | 0.00 | 97 | 1016.6 |
| 20260509100529 | 69 | 168 | 0.0 | 0.0 | 0.00 | 0.00 | 0.00 | 97 | 1016.6 |
| 20260509100027 | 69 | 168 | 0.0 | 0.0 | 0.00 | 0.00 | 0.00 | 97 | 1016.5 |
| 20260509095523 | 69 | 168 | 0.0 | 0.0 | 0.00 | 0.00 | 0.00 | 97 | 1016.6 |
| 20260509095021 | 69 | 168 | 0.0 | 0.0 | 0.00 | 0.00 | 0.00 | 97 | 1016.6 |
| 20260509094516 | 69 | 167 | 0.0 | 0.0 | 0.00 | 0.00 | 0.00 | 97 | 1016.4 |
| 20260509094014 | 69 | 171 | 0.0 | 0.0 | 0.00 | 0.00 | 0.00 | 97 | 1016.5 |
| 20260509093512 | 69 | 168 | 0.0 | 0.0 | 0.00 | 0.00 | 0.00 | 97 | 1016.3 |
| 20260509093010 | 69 | 168 | 0.0 | 0.0 | 0.00 | 0.00 | 0.00 | 97 | 1016.5 |
| 20260509092507 | 69 | 167 | 0.0 | 0.0 | 0.00 | 0.00 | 0.00 | 97 | 1016.5 |
| 20260509092006 | 68 | 167 | 0.0 | 0.0 | 0.00 | 0.00 | 0.00 | 97 | 1016.5 |
| 20260509091503 | 69 | 163 | 0.0 | 0.0 | 0.00 | 0.00 | 0.00 | 97 | 1016.7 |
| 20260509090959 | 68 | 163 | 0.0 | 0.0 | 0.00 | 0.00 | 0.00 | 97 | 1016.6 |
| 20260509090456 | 68 | 163 | 0.0 | 0.0 | 0.00 | 0.00 | 0.00 | 97 | 1016.5 |
| 20260509085954 | 68 | 163 | 0.0 | 0.0 | 0.00 | 0.00 | 0.00 | 97 | 1016.7 |
| 20260509085451 | 68 | 160 | 0.0 | 0.0 | 0.00 | 0.00 | 0.00 | 97 | 1016.5 |
| 20260509084947 | 68 | 160 | 0.0 | 0.0 | 0.00 | 0.00 | 0.00 | 97 | 1016.5 |
| 20260509084444 | 68 | 160 | 0.0 | 0.0 | 0.00 | 0.00 | 0.00 | 97 | 1016.5 |
| 20260509083941 | 68 | 152 | 0.0 | 0.0 | 0.00 | 0.00 | 0.00 | 97 | 1016.6 |
| 20260509083439 | 69 | 152 | 0.0 | 0.0 | 0.00 | 0.00 | 0.00 | 97 | 1016.4 |
| 20260509082935 | 69 | 152 | 0.0 | 0.0 | 0.00 | 0.00 | 0.00 | 97 | 1016.5 |
| 20260509082432 | 68 | 153 | 0.0 | 0.0 | 0.00 | 0.00 | 0.00 | 97 | 1016.6 |
| 20260509081929 | 68 | 166 | 0.0 | 0.0 | 0.00 | 0.00 | 0.00 | 97 | 1016.8 |
| 20260509081427 | 68 | 163 | 0.0 | 0.0 | 0.00 | 0.00 | 0.00 | 97 | 1016.8 |
| 20260509080924 | 68 | 163 | 0.0 | 0.0 | 0.00 | 0.00 | 0.00 | 97 | 1016.7 |
| 20260509080422 | 68 | 161 | 0.0 | 0.0 | 0.00 | 0.00 | 0.00 | 97 | 1016.6 |
| 20260509075920 | 69 | 161 | 0.0 | 0.0 | 0.00 | 0.00 | 0.00 | 97 | 1016.7 |
| 20260509075416 | 68 | 163 | 0.0 | 0.0 | 0.00 | 0.00 | 0.00 | 97 | 1016.8 |
| 20260509074914 | 68 | 161 | 0.0 | 0.0 | 0.00 | 0.00 | 0.00 | 97 | 1016.7 |
| 20260509074412 | 68 | 164 | 0.0 | 0.0 | 0.00 | 0.00 | 0.00 | 97 | 1017.1 |
| 20260509073908 | 68 | 162 | 0.0 | 0.0 | 0.00 | 0.00 | 0.00 | 97 | 1016.8 |
| 20260509073404 | 68 | 156 | 0.0 | 0.0 | 0.00 | 0.00 | 0.00 | 97 | 1016.8 |
| 20260509072901 | 68 | 157 | 0.0 | 0.0 | 0.00 | 0.00 | 0.00 | 97 | 1017.1 |
| 20260509072357 | 68 | 161 | 0.0 | 0.0 | 0.00 | 0.00 | 0.00 | 97 | 1017.2 |
| 20260509071854 | 68 | 153 | 0.0 | 0.0 | 0.00 | 0.00 | 0.00 | 97 | 1017.0 |
| 20260509071351 | 68 | 162 | 0.0 | 0.0 | 0.00 | 0.00 | 0.00 | 97 | 1017.0 |
| 20260509070848 | 68 | 162 | 0.0 | 0.0 | 0.00 | 0.00 | 0.00 | 97 | 1017.2 |
| 20260509070345 | 68 | 162 | 0.0 | 0.0 | 0.00 | 0.00 | 0.00 | 97 | 1017.4 |
| 20260509065841 | 68 | 154 | 0.0 | 0.0 | 0.00 | 0.00 | 0.00 | 97 | 1017.3 |
| 20260509065337 | 68 | 163 | 0.0 | 0.0 | 0.00 | 0.00 | 0.00 | 97 | 1017.4 |
| 20260509064833 | 68 | 157 | 0.0 | 0.0 | 0.00 | 0.00 | 0.00 | 97 | 1017.5 |
| 20260509064331 | 68 | 157 | 0.0 | 0.0 | 0.00 | 0.00 | 0.00 | 97 | 1017.5 |
| 20260509063829 | 68 | 151 | 0.0 | 0.0 | 0.00 | 0.00 | 0.00 | 97 | 1017.6 |
| 20260509063324 | 69 | 166 | 0.0 | 0.0 | 0.00 | 0.00 | 0.00 | 97 | 1017.6 |
| 20260509062822 | 69 | 154 | 0.0 | 0.0 | 0.00 | 0.00 | 0.00 | 97 | 1017.5 |
| 20260509062319 | 69 | 153 | 0.0 | 0.0 | 0.00 | 0.00 | 0.00 | 97 | 1017.8 |
| 20260509061816 | 69 | 184 | 1.0 | 2.0 | 0.00 | 0.00 | 0.00 | 97 | 1017.7 |
| 20260509061314 | 69 | 160 | 0.0 | 0.0 | 0.00 | 0.00 | 0.00 | 97 | 1017.9 |
| 20260509060811 | 70 | 152 | 0.0 | 0.0 | 0.00 | 0.00 | 0.00 | 97 | 1017.7 |
| 20260509060308 | 70 | 163 | 0.0 | 0.0 | 0.00 | 0.00 | 0.00 | 97 | 1017.9 |
| 20260509055803 | 71 | 159 | 0.0 | 1.0 | 0.00 | 0.00 | 0.00 | 97 | 1018.0 |
| 20260509055259 | 71 | 203 | 1.0 | 2.0 | 0.00 | 0.00 | 0.00 | 97 | 1018.0 |
| 20260509054756 | 72 | 123 | 0.0 | 1.0 | 0.00 | 0.00 | 0.00 | 97 | 1018.0 |
| 20260509054252 | 72 | 172 | 1.0 | 1.0 | 0.00 | 0.00 | 0.00 | 97 | 1018.2 |
| 20260509053751 | 72 | 153 | 1.0 | 1.0 | 0.00 | 0.00 | 0.00 | 97 | 1018.2 |
| 20260509053248 | 71 | 190 | 1.0 | 1.0 | 0.00 | 0.00 | 0.00 | 97 | 1018.1 |
| 20260509052746 | 71 | 152 | 1.0 | 1.0 | 0.00 | 0.00 | 0.00 | 97 | 1018.3 |
| 20260509052243 | 71 | 160 | 0.0 | 1.0 | 0.00 | 0.00 | 0.00 | 97 | 1018.4 |
| 20260509051741 | 72 | 138 | 1.0 | 1.0 | 0.00 | 0.00 | 0.00 | 97 | 1018.4 |
| 20260509051239 | 71 | 173 | 0.0 | 0.0 | 0.00 | 0.00 | 0.00 | 97 | 1018.4 |
| 20260509050735 | 72 | 140 | 0.0 | 0.0 | 0.00 | 0.00 | 0.00 | 97 | 1018.4 |
| 20260509050231 | 72 | 168 | 1.0 | 1.0 | 0.00 | 0.00 | 0.00 | 97 | 1018.6 |
| 20260509045729 | 72 | 157 | 0.0 | 1.0 | 0.00 | 0.00 | 0.00 | 97 | 1018.3 |
| 20260509045226 | 72 | 178 | 0.0 | 0.0 | 0.00 | 0.00 | 0.00 | 97 | 1018.4 |
| 20260509044723 | 72 | 163 | 0.0 | 0.0 | 0.00 | 0.00 | 0.00 | 97 | 1018.3 |
| 20260509044221 | 72 | 193 | 1.0 | 1.0 | 0.00 | 0.00 | 0.00 | 97 | 1018.5 |
| 20260509043717 | 72 | 168 | 1.0 | 1.0 | 0.00 | 0.00 | 0.00 | 97 | 1018.6 |
| 20260509043213 | 72 | 166 | 0.0 | 0.0 | 0.00 | 0.00 | 0.00 | 97 | 1018.8 |
| 20260509042709 | 72 | 188 | 1.0 | 1.0 | 0.00 | 0.00 | 0.00 | 97 | 1018.7 |
| 20260509042205 | 72 | 167 | 0.0 | 0.0 | 0.00 | 0.00 | 0.00 | 97 | 1018.7 |
| 20260509041702 | 72 | 167 | 0.0 | 0.0 | 0.00 | 0.00 | 0.00 | 97 | 1018.8 |
| 20260509041200 | 72 | 174 | 0.0 | 1.0 | 0.00 | 0.00 | 0.00 | 97 | 1018.9 |
| 20260509040658 | 71 | 163 | 0.0 | 0.0 | 0.00 | 0.00 | 0.00 | 97 | 1018.7 |
| 20260509040154 | 71 | 168 | 0.0 | 0.0 | 0.00 | 0.00 | 0.00 | 97 | 1018.6 |
| 20260509035651 | 71 | 171 | 0.0 | 0.0 | 0.00 | 1.46 | 1.46 | 97 | 1018.7 |
| 20260509035148 | 71 | 165 | 0.0 | 0.0 | 0.00 | 1.46 | 1.46 | 97 | 1018.6 |
| 20260509034645 | 71 | 159 | 0.0 | 0.0 | 0.00 | 1.46 | 1.46 | 97 | 1018.6 |
| 20260509034142 | 71 | 171 | 0.0 | 0.0 | 0.00 | 1.46 | 1.46 | 97 | 1018.7 |
| 20260509033639 | 71 | 168 | 0.0 | 0.0 | 0.00 | 1.46 | 1.46 | 97 | 1018.4 |
| 20260509033136 | 71 | 168 | 0.0 | 0.0 | 0.00 | 1.46 | 1.46 | 97 | 1018.5 |
| 20260509032634 | 71 | 168 | 0.0 | 0.0 | 0.00 | 1.46 | 1.46 | 97 | 1018.5 |
| 20260509032130 | 72 | 168 | 0.0 | 0.0 | 0.00 | 1.46 | 1.46 | 97 | 1018.4 |
| 20260509031628 | 72 | 168 | 0.0 | 0.0 | 0.00 | 1.46 | 1.46 | 97 | 1018.6 |
| 20260509031125 | 72 | 168 | 0.0 | 0.0 | 0.00 | 1.46 | 1.46 | 97 | 1018.7 |
| 20260509030624 | 72 | 168 | 0.0 | 0.0 | 0.00 | 1.46 | 1.46 | 97 | 1018.9 |
| 20260509030121 | 72 | 168 | 0.0 | 0.0 | 0.00 | 1.46 | 1.46 | 97 | 1018.6 |
| 20260509025616 | 72 | 168 | 0.0 | 0.0 | 0.00 | 1.46 | 1.46 | 97 | 1018.8 |
| 20260509025112 | 72 | 169 | 0.0 | 0.0 | 0.00 | 1.46 | 1.46 | 97 | 1018.7 |
| 20260509024608 | 72 | 169 | 0.0 | 0.0 | 0.00 | 1.46 | 1.46 | 97 | 1018.7 |
| 20260509024104 | 72 | 170 | 0.0 | 0.0 | 0.00 | 1.46 | 1.46 | 97 | 1018.9 |
| 20260509023602 | 72 | 170 | 0.0 | 0.0 | 0.00 | 1.46 | 1.46 | 97 | 1018.9 |
| 20260509023059 | 72 | 171 | 0.0 | 0.0 | 0.00 | 1.46 | 1.46 | 97 | 1018.8 |
| 20260509022555 | 72 | 154 | 0.0 | 0.0 | 0.00 | 1.46 | 1.46 | 97 | 1018.5 |
| 20260509022053 | 72 | 153 | 0.0 | 0.0 | 0.00 | 1.46 | 1.46 | 97 | 1018.4 |
| 20260509021550 | 72 | 153 | 0.0 | 0.0 | 0.00 | 1.46 | 1.46 | 97 | 1018.5 |
| 20260509021047 | 73 | 153 | 0.0 | 0.0 | 0.00 | 1.46 | 1.46 | 97 | 1018.7 |
| 20260509020545 | 72 | 152 | 0.0 | 0.0 | 0.00 | 1.46 | 1.46 | 97 | 1018.3 |
| 20260509020041 | 73 | 152 | 0.0 | 0.0 | 0.00 | 1.46 | 1.46 | 96 | 1018.3 |
| 20260509015541 | 73 | 152 | 0.0 | 0.0 | 0.00 | 1.46 | 1.46 | 97 | 1018.1 |
| 20260509015038 | 73 | 151 | 0.0 | 0.0 | 0.00 | 1.46 | 1.46 | 96 | 1018.2 |
| 20260509014534 | 73 | 152 | 0.0 | 0.0 | 0.00 | 1.46 | 1.46 | 97 | 1018.2 |
| 20260509014030 | 73 | 152 | 0.0 | 0.0 | 0.00 | 1.46 | 1.46 | 96 | 1018.2 |
| 20260509013528 | 73 | 151 | 0.0 | 0.0 | 0.00 | 1.46 | 1.46 | 96 | 1018.0 |
| 20260509013023 | 73 | 154 | 0.0 | 0.0 | 0.00 | 1.46 | 1.46 | 96 | 1017.9 |
| 20260509012520 | 73 | 153 | 0.0 | 0.0 | 0.00 | 1.46 | 1.46 | 96 | 1018.0 |
| 20260509012017 | 73 | 152 | 0.0 | 0.0 | 0.00 | 1.46 | 1.46 | 96 | 1017.7 |
| 20260509011515 | 73 | 151 | 0.0 | 0.0 | 0.05 | 1.46 | 1.46 | 96 | 1017.8 |
| 20260509011012 | 73 | 157 | 0.0 | 0.0 | 0.05 | 1.46 | 1.46 | 96 | 1017.9 |
| 20260509010509 | 73 | 158 | 0.0 | 0.0 | 0.07 | 1.45 | 1.45 | 96 | 1017.9 |
| 20260509010006 | 73 | 167 | 0.0 | 0.0 | 0.07 | 1.45 | 1.45 | 96 | 1017.4 |
| 20260509005504 | 73 | 168 | 0.0 | 0.0 | 0.07 | 1.44 | 1.44 | 96 | 1017.6 |
| 20260509005003 | 73 | 164 | 0.0 | 0.0 | 0.07 | 1.44 | 1.44 | 96 | 1017.6 |
| 20260509004501 | 73 | 156 | 0.0 | 0.0 | 0.00 | 1.43 | 1.43 | 96 | 1017.4 |
| 20260509003958 | 73 | 168 | 0.0 | 0.0 | 0.00 | 1.43 | 1.43 | 96 | 1017.2 |
| 20260509003457 | 73 | 174 | 0.0 | 0.0 | 0.00 | 1.43 | 1.43 | 96 | 1017.3 |
| 20260509002953 | 73 | 152 | 0.0 | 0.0 | 0.00 | 1.43 | 1.43 | 96 | 1017.3 |
| 20260509002451 | 73 | 159 | 0.0 | 0.0 | 0.00 | 1.43 | 1.43 | 96 | 1017.1 |
| 20260509001948 | 73 | 153 | 0.0 | 0.0 | 0.00 | 1.43 | 1.43 | 96 | 1017.3 |
| 20260509001444 | 73 | 153 | 0.0 | 0.0 | 0.00 | 1.43 | 1.43 | 96 | 1017.4 |
| 20260509000941 | 73 | 157 | 0.0 | 0.0 | 0.00 | 1.43 | 1.43 | 96 | 1017.2 |
| 20260509000440 | 73 | 166 | 0.0 | 0.0 | 0.00 | 1.43 | 1.43 | 96 | 1017.7 |
| 20260508235934 | 73 | 155 | 0.0 | 0.0 | 0.00 | 1.43 | 1.43 | 96 | 1017.4 |
| 20260508235432 | 73 | 162 | 0.0 | 0.0 | 0.00 | 1.43 | 1.43 | 96 | 1017.5 |
| 20260508234928 | 73 | 164 | 0.0 | 0.0 | 0.00 | 1.43 | 1.43 | 96 | 1017.4 |
| 20260508234425 | 74 | 155 | 0.0 | 0.0 | 0.00 | 1.43 | 1.43 | 96 | 1016.9 |
| 20260508233923 | 74 | 155 | 0.0 | 0.0 | 0.00 | 1.43 | 1.43 | 96 | 1016.9 |
| 20260508233422 | 74 | 152 | 0.0 | 0.0 | 0.00 | 1.43 | 1.43 | 95 | 1017.0 |
| 20260508232919 | 74 | 154 | 0.0 | 0.0 | 0.00 | 1.43 | 1.43 | 95 | 1016.9 |
| 20260508232416 | 74 | 142 | 1.0 | 1.0 | 0.00 | 1.43 | 1.43 | 95 | 1016.9 |
| 20260508231913 | 74 | 147 | 0.0 | 1.0 | 0.00 | 1.43 | 1.43 | 95 | 1016.7 |
| 20260508231410 | 74 | 117 | 1.0 | 1.0 | 0.00 | 1.43 | 1.43 | 95 | 1016.5 |
| 20260508230908 | 74 | 156 | 0.0 | 0.0 | 0.00 | 1.43 | 1.43 | 95 | 1016.8 |
| 20260508230404 | 74 | 148 | 0.0 | 0.0 | 0.00 | 1.43 | 1.43 | 95 | 1016.6 |
| 20260508225901 | 74 | 128 | 3.0 | 5.0 | 0.00 | 1.43 | 1.43 | 95 | 1016.6 |
| 20260508225358 | 74 | 155 | 0.0 | 0.0 | 0.05 | 1.43 | 1.43 | 95 | 1016.6 |
| 20260508224855 | 74 | 144 | 0.0 | 0.0 | 0.05 | 1.43 | 1.43 | 95 | 1017.0 |
| 20260508224353 | 74 | 131 | 0.0 | 1.0 | 0.07 | 1.42 | 1.42 | 95 | 1016.9 |
| 20260508223850 | 74 | 158 | 1.0 | 1.0 | 0.12 | 1.42 | 1.42 | 95 | 1016.8 |
| 20260508223348 | 74 | 151 | 0.0 | 0.0 | 0.19 | 1.40 | 1.40 | 95 | 1016.8 |
| 20260508222845 | 74 | 159 | 1.0 | 2.0 | 0.17 | 1.39 | 1.39 | 94 | 1016.4 |
| 20260508222342 | 74 | 121 | 0.0 | 0.0 | 0.35 | 1.37 | 1.37 | 94 | 1016.9 |
| 20260508221838 | 74 | 175 | 1.0 | 1.0 | 0.61 | 1.36 | 1.36 | 94 | 1016.6 |
| 20260508221334 | 74 | 143 | 1.0 | 1.0 | 1.96 | 1.30 | 1.30 | 94 | 1016.3 |
| 20260508220830 | 74 | 127 | 0.0 | 1.0 | 5.17 | 1.25 | 1.25 | 93 | 1015.9 |
| 20260508220327 | 74 | 183 | 2.0 | 3.0 | 5.17 | 0.88 | 0.88 | 92 | 1016.5 |
| 20260508215824 | 75 | 235 | 4.0 | 6.0 | 1.39 | 0.23 | 0.23 | 90 | 1016.3 |
| 20260508215320 | 77 | 192 | 2.0 | 2.0 | 0.00 | 0.00 | 0.00 | 87 | 1015.5 |
| 20260508214817 | 78 | 129 | 2.0 | 2.0 | 0.00 | 0.00 | 0.00 | 85 | 1015.4 |
| 20260508214314 | 78 | 124 | 1.0 | 1.0 | 0.00 | 0.00 | 0.00 | 84 | 1015.3 |
| 20260508213811 | 78 | 115 | 0.0 | 1.0 | 0.00 | 0.00 | 0.00 | 83 | 1015.4 |
| 20260508213308 | 79 | 39 | 4.0 | 5.0 | 0.00 | 0.00 | 0.00 | 82 | 1015.8 |
| 20260508212804 | 79 | 145 | 1.0 | 1.0 | 0.00 | 0.00 | 0.00 | 83 | 1015.5 |
| 20260508212300 | 79 | 85 | 1.0 | 1.0 | 0.00 | 0.00 | 0.00 | 83 | 1015.6 |
| 20260508211756 | 78 | 139 | 1.0 | 1.0 | 0.00 | 0.00 | 0.00 | 83 | 1015.8 |
| 20260508211252 | 79 | 187 | 1.0 | 2.0 | 0.00 | 0.00 | 0.00 | 83 | 1016.0 |
| 20260508210750 | 79 | 136 | 1.0 | 1.0 | 0.00 | 0.00 | 0.00 | 82 | 1016.1 |
| 20260508210247 | 79 | 126 | 1.0 | 1.0 | 0.00 | 0.00 | 0.00 | 81 | 1016.3 |
| 20260508205743 | 80 | 151 | 2.0 | 2.0 | 0.00 | 0.00 | 0.00 | 81 | 1016.1 |
| 20260508205240 | 80 | 109 | 3.0 | 5.0 | 0.00 | 0.00 | 0.00 | 80 | 1016.1 |
| 20260508204736 | 80 | 145 | 3.0 | 3.0 | 0.00 | 0.00 | 0.00 | 79 | 1016.1 |
| 20260508204233 | 81 | 137 | 2.0 | 3.0 | 0.00 | 0.00 | 0.00 | 79 | 1016.2 |
| 20260508203729 | 82 | 38 | 2.0 | 5.0 | 0.00 | 0.00 | 0.00 | 77 | 1016.3 |
| 20260508203225 | 81 | 93 | 1.0 | 2.0 | 0.00 | 0.00 | 0.00 | 78 | 1016.3 |
| 20260508202721 | 81 | 106 | 1.0 | 2.0 | 0.00 | 0.00 | 0.00 | 78 | 1016.1 |
| 20260508202218 | 82 | 143 | 3.0 | 3.0 | 0.00 | 0.00 | 0.00 | 77 | 1015.9 |
| 20260508201716 | 82 | 113 | 0.0 | 1.0 | 0.00 | 0.00 | 0.00 | 77 | 1016.1 |
| 20260508201212 | 84 | 83 | 3.0 | 5.0 | 0.00 | 0.00 | 0.00 | 74 | 1016.2 |
| 20260508200709 | 83 | 153 | 2.0 | 2.0 | 0.00 | 0.00 | 0.00 | 75 | 1016.4 |
| 20260508200205 | 83 | 147 | 1.0 | 2.0 | 0.00 | 0.00 | 0.00 | 76 | 1016.4 |
| 20260508195702 | 84 | 148 | 2.0 | 2.0 | 0.00 | 0.00 | 0.00 | 75 | 1016.4 |
| 20260508195158 | 84 | 81 | 3.0 | 5.0 | 0.00 | 0.00 | 0.00 | 75 | 1016.6 |
| 20260508194654 | 85 | 110 | 2.0 | 2.0 | 0.00 | 0.00 | 0.00 | 72 | 1016.6 |
| 20260508194151 | 83 | 144 | 1.0 | 2.0 | 0.00 | 0.00 | 0.00 | 76 | 1016.7 |
| 20260508193648 | 83 | 100 | 4.0 | 6.0 | 0.00 | 0.00 | 0.00 | 75 | 1016.7 |
| 20260508193145 | 84 | 109 | 3.0 | 5.0 | 0.00 | 0.00 | 0.00 | 75 | 1016.7 |
| 20260508192642 | 85 | 170 | 4.0 | 7.0 | 0.00 | 0.00 | 0.00 | 73 | 1016.7 |
| 20260508192139 | 85 | 121 | 1.0 | 1.0 | 0.00 | 0.00 | 0.00 | 73 | 1016.7 |
| 20260508191636 | 84 | 150 | 1.0 | 1.0 | 0.00 | 0.00 | 0.00 | 73 | 1017.0 |
| 20260508191132 | 84 | 146 | 3.0 | 5.0 | 0.00 | 0.00 | 0.00 | 73 | 1016.7 |
| 20260508190630 | 85 | 146 | 1.0 | 1.0 | 0.00 | 0.00 | 0.00 | 72 | 1017.2 |
| 20260508190126 | 84 | 65 | 1.0 | 1.0 | 0.00 | 0.00 | 0.00 | 75 | 1017.2 |
| 20260508185623 | 86 | 126 | 1.0 | 1.0 | 0.00 | 0.00 | 0.00 | 71 | 1017.2 |
| 20260508185121 | 86 | 99 | 1.0 | 2.0 | 0.00 | 0.00 | 0.00 | 72 | 1017.4 |
| 20260508184618 | 85 | 61 | 1.0 | 2.0 | 0.00 | 0.00 | 0.00 | 74 | 1017.5 |
| 20260508184115 | 84 | 104 | 4.0 | 6.0 | 0.00 | 0.00 | 0.00 | 74 | 1017.5 |
| 20260508183611 | 83 | 117 | 2.0 | 3.0 | 0.00 | 0.00 | 0.00 | 76 | 1017.4 |
| 20260508183107 | 82 | 132 | 1.0 | 1.0 | 0.00 | 0.00 | 0.00 | 76 | 1017.7 |
| 20260508182604 | 83 | 85 | 3.0 | 6.0 | 0.00 | 0.00 | 0.00 | 74 | 1017.8 |
| 20260508182100 | 82 | 164 | 3.0 | 5.0 | 0.00 | 0.00 | 0.00 | 77 | 1017.8 |
| 20260508181555 | 84 | 90 | 3.0 | 3.0 | 0.00 | 0.00 | 0.00 | 74 | 1017.7 |
| 20260508181054 | 85 | 136 | 1.0 | 1.0 | 0.00 | 0.00 | 0.00 | 73 | 1017.9 |
| 20260508180550 | 84 | 66 | 4.0 | 6.0 | 0.00 | 0.00 | 0.00 | 73 | 1018.1 |
| 20260508180046 | 84 | 147 | 1.0 | 2.0 | 0.00 | 0.00 | 0.00 | 74 | 1018.1 |
| 20260508175543 | 85 | 182 | 1.0 | 2.0 | 0.00 | 0.00 | 0.00 | 72 | 1017.9 |
| 20260508175040 | 85 | 111 | 2.0 | 2.0 | 0.00 | 0.00 | 0.00 | 74 | 1018.1 |
| 20260508174538 | 86 | 122 | 4.0 | 7.0 | 0.00 | 0.00 | 0.00 | 71 | 1017.9 |
| 20260508174034 | 86 | 146 | 1.0 | 1.0 | 0.00 | 0.00 | 0.00 | 71 | 1018.1 |
| 20260508173531 | 86 | 65 | 2.0 | 5.0 | 0.00 | 0.00 | 0.00 | 73 | 1017.8 |